Showing default

LEMUR 2 VALHALLA, 58900

Orbit data source: Space-Track

LEMUR 2 VALHALLA, 58900 is an American payload satellite in SSO that was launched on Wed, 31 Jan 2024 UTC via an ELECTRON launch vehicle from the Rocket Lab Launch Complex (RLLC). Payload-class satellites include a variety of spacecraft equipped with specific instruments for various scientific and technological missions. These include communications satellites like Starlink; space stations such as the ISS; scientific satellites like the Hubble; Earth observation satellites from companies like Planet Labs, Umbra, and HawkEye 360; GPS; miniature CubeSats for education and research; and military/defense satellites.

Loading next visibility...
Identifier
58900, 2024-022B
Orbit
SSO
Last TLE update
13 hours ago
Origin
Manufacturer
Spire/Glasgow
Mission
Operational Commercial Early Warn
Bus & Motor
CUBESAT 3U, Unknown motor
Mass
~25 kg wet, ~25 kg dry
Launch date (UTC)
2024-01-31 (1 year ago)
Launch vehicle
ELECTRON
Launch site
Rocket Lab Launch Complex (RLLC)
Object type
Payload
Rocket body
Debris
Shape & HBR
Box + 2 Pan, 1 m
Radar Cross Section
0.146 m², Medium (>0.1 m² and < 1m²)

Expand to show TLE details & history

TLE from 13 hours ago
0 LEMUR 2 VALHALLA
1 58900U 24022B   25183.53331973  .00007987  00000-0  29578-3 0  9990
2 58900  97.4472  26.6790 0010464 283.8299  76.1776 15.27878998 78680
Epoch: 2025-07-02T12:47Z
TLE epoch observation values (Epoch: 2025-07-02T12:47:58.824Z)
Latitude
-0.00001°
Longitude
-86.12915°
Altitude
483.545 km
Speed
7.625 km/s
True Right ascension
01h 46m 42s
True Declination
0° 00' 00"
Sunlit
Object was in daylight at epoch
Visualization orbit readout
Latitude
-19.41924°
Longitude
91.80391°
Altitude
488.752 km
Speed
7.62 km/s
Apparent Right ascension
12h 35m 11s
Apparent Declination
-75° 17' 48"
Sunlit
Object is in daylight
Visualization observer readout
Local Sidereal Time
13:59:41
Azimuth
185.844° SSW
Elevation
-26.044°
Doppler factor
1
Orbital elements
Apogee altitude
486.286 km
Perigee altitude
471.936 km
Semi-major axis
6,857.248 km
Eccentricity
0.00105
Inclination
97.4472°
RAAN
26.679°
Arg. of periapsis
283.8299°
True anomaly
Unknown
Mean anomaly
76.1776°
Eccentric anomaly
Unknown
Mean motion
3.82224 °/min
Orbital period
94.19 mins
BSTAR
0.00029578
Loading maneuver chart data...
Loading SW <> Apogee altitude chart data...
Loading historical data...
Loading historical data...
Loading historical data...
Loading historical data...
Loading historical data...
Loading historical data...
Loading historical data...

LEMUR 2 VALHALLA Visibility forecast

Observer location: undefined°, undefined°

Span
Click to sort rows by Start time (UTC) header in descending order
Start Az.
Max El. time (UTC)
Max El. Az.
Max El.
End time (UTC)
End Az.
4 mins2025-07-03 14:05:42.242Z214.789° SW2025-07-03 14:06:42.242Z242.533° WSW28.956°2025-07-03 14:09:42.242Z323.409° NNW
|